Simultaneous Nadir Overpasses (SNOs) Predictions

Prediction of SNOs between FY3D and AQUA Satellite Orbit:

Table of predicted SNOs for the next 14.0 days since TLE Epoch: 5/25/2019
Index Date (FY3D) Time (FY3D) Lat,Lon (FY3D) SZA (FY3D ) Date (AQUA) Time (AQUA) Lat,Lon (AQUA) SZA (AQUA ) Distance(km) Time Diff (sec)
1 05/26/2019 21:07:33 -65.91, -94.57 92.88 05/26/2019 21:08:40 -65.92, -94.54 92.96 1.67 67
2 05/26/2019 21:56:56 70.21, 78.22 82.62 05/26/2019 21:56:48 70.21, 78.20 82.64 0.63 8
3 05/26/2019 22:39:29 -75.99, 4.86 124.79 05/26/2019 22:38:16 -76.51, 7.67 124.44 94.11 73
4 05/29/2019 13:23:46 -66.69, 22.16 94.08 05/29/2019 13:24:55 -66.69, 22.12 94.14 1.59 69
5 05/29/2019 14:13:28 69.96,-166.28 82.49 05/29/2019 14:13:21 69.97,-166.27 82.49 0.74 7
6 05/29/2019 14:56:59 -78.63, 108.81 121.78 05/29/2019 14:55:46 -79.20, 111.24 121.46 81.83 73
7 06/01/2019 05:40:19 -66.39, 137.70 94.11 06/01/2019 05:41:29 -66.38, 137.69 94.18 0.60 70
8 06/01/2019 06:29:59 69.76, -50.70 82.35 06/01/2019 06:29:53 69.77, -50.66 82.34 1.68 6
9 06/01/2019 07:14:24 -80.46,-151.33 118.97 06/01/2019 07:13:11 -81.05,-149.85 118.68 70.25 73
10 06/03/2019 21:56:49 -66.18,-106.63 94.21 06/03/2019 21:58:00 -66.18,-106.63 94.28 0.03 71
11 06/03/2019 22:46:28 69.61, 64.97 82.20 06/03/2019 22:46:23 69.62, 65.02 82.19 2.19 5
12 06/03/2019 23:31:42 -81.28, -54.14 116.42 06/03/2019 23:30:29 -81.81, -54.03 116.17 59.67 73
13 06/06/2019 14:13:18 -66.09, 9.15 94.37 06/06/2019 14:14:30 -66.09, 9.15 94.44 0.19 72
14 06/06/2019 15:02:56 69.57,-179.21 81.99 06/06/2019 15:02:52 69.58,-179.16 81.98 2.28 4




NCC Satellite Simultaneous Nadir Overpasses (SNOs) Prediction Service
